Theta_e
289 288 287 287 286 285 285 284 283 283 283 283 283 283 283 284 284 284 284 284 284 284 284 284 285 285 285 285 284 284 284 283
289 289 288 286 285 284 283 283 282 283 282 282 282 282 283 283 283 284 283 283 283 283 283 283 283 284 283 283 283 281 281 282
290 289 287 286 284 283 283 283 282 282 282 281 281 281 281 281 282 283 282 283 282 282 282 282 282 282 282 281 281 280 279 280
290 289 288 286 285 283 283 282 282 281 281 281 280 280 281 281 282 282 282 282 282 281 281 281 281 281 281 281 281 279 279 279
290 291 291 289 287 284 283 282 281 281 280 280 280 280 280 281 281 281 281 281 281 280 280 280 280 280 281 280 280 280 279 279
290 291 290 290 288 285 283 282 281 280 280 280 280 280 280 280 280 280 280 280 281 281 281 281 280 280 280 279 278 278 277 277
288 288 289 289 288 286 283 281 281 279 279 279 279 279 279 279 279 279 279 279 280 280 280 280 281 282 280 279 278 277 276 275
288 288 287 287 287 286 283 280 280 279 279 278 278 278 278 278 278 278 278 279 278 279 279 279 280 281 279 279 277 275 274 274
287 287 286 283 282 281 280 279 278 278 278 277 277 277 277 277 277 277 278 277 277 278 279 279 279 280 279 277 275 274 273 273
286 285 281 280 279 278 276 277 277 276 276 276 277 276 276 276 276 276 277 277 277 277 277 277 278 278 278 276 275 273 272 273
281 277 277 276 277 276 275 275 275 275 276 276 276 276 276 276 275 276 277 277 277 276 276 275 277 278 277 276 274 272 270 270
274 276 275 274 274 274 273 273 274 274 275 275 276 276 276 276 276 276 276 276 274 273 273 274 274 277 277 275 272 270 269 268
274 275 272 273 274 274 273 273 272 273 273 273 274 276 276 275 276 276 275 273 271 271 271 272 272 275 276 274 272 270 267 267
275 274 270 271 272 272 271 270 270 271 270 271 273 275 275 275 275 273 273 272 270 270 269 269 270 272 275 275 272 270 267 268
271 271 273 270 272 272 270 270 270 270 270 271 273 274 275 276 275 274 272 271 270 269 267 267 267 268 269 268 269 269 265 264
273 274 275 269 269 267 268 270 270 270 270 272 273 273 274 274 274 273 273 273 269 267 266 265 265 266 269 265 262 260 261 254
271 271 271 267 267 266 268 270 270 270 270 272 272 272 272 272 272 276 275 276 275 273 267 265 270 273 274 271 270 269 264 254
273 272 265 265 265 266 269 271 271 271 272 272 272 271 270 270 270 269 274 276 275 274 273 272 272 274 274 274 271 270 263 255
265 264 264 265 267 268 270 271 271 273 272 272 271 271 270 269 269 269 268 267 268 271 272 273 273 274 273 273 268 261 253 251
261 264 266 267 267 269 271 272 272 272 271 271 270 270 269 268 266 264 263 264 259 257 263 258 272 273 273 272 258 257 254 251
Wind_Speed
6 5 4 4 4 4 4 4 4 4 4 4 4 4 4 4 5 5 5 5 6 6 7 7 7 7 8 8 8 9 8 7
5 4 5 5 5 6 5 6 5 4 4 4 4 4 4 4 4 5 5 5 6 6 6 7 7 7 9 9 9 10 9 8
4 4 5 6 6 6 6 6 5 5 5 5 4 4 4 4 4 5 6 5 6 6 7 7 8 7 8 9 8 9 9 7
4 6 6 6 6 7 7 6 5 5 5 5 5 4 4 4 4 5 6 6 6 6 7 7 7 8 8 8 9 9 8 8
4 6 6 6 6 5 5 5 6 6 5 6 5 5 5 5 5 6 6 7 7 6 6 6 6 7 7 8 8 8 8 8
6 6 3 1 3 5 5 6 7 7 6 6 6 6 6 6 6 6 6 6 6 7 6 5 5 4 6 7 8 8 8 8
8 7 5 3 3 4 5 7 7 7 6 6 6 6 6 7 7 7 7 7 7 6 6 6 5 8 8 7 7 8 7 7
8 7 6 6 4 5 6 7 8 8 7 8 7 7 7 7 7 8 8 7 7 7 7 7 6 8 9 9 8 8 7 7
6 5 5 4 3 3 5 5 7 7 9 8 8 8 7 7 7 7 6 7 7 7 7 7 6 7 10 9 8 8 8 7
7 5 6 6 5 6 5 5 7 8 9 10 10 9 9 8 8 6 7 7 6 7 7 7 7 8 8 6 6 7 7 8
7 3 4 5 6 6 6 7 8 9 9 9 10 10 10 9 9 6 7 7 6 7 6 6 6 9 8 6 4 6 5 5
4 6 5 5 6 6 5 9 7 7 7 8 9 10 9 9 7 8 8 8 7 7 5 5 3 6 9 7 4 4 5 4
6 7 6 6 6 7 9 4 6 8 8 9 9 8 8 10 8 9 9 9 8 7 5 3 1 7 9 10 8 9 6 5
8 7 5 7 8 7 5 7 7 8 7 7 8 7 8 10 10 9 9 8 7 6 6 4 2 2 8 10 8 9 6 4
6 8 9 9 10 7 6 8 9 9 8 8 9 8 8 7 7 8 8 7 7 6 5 4 4 4 3 4 5 8 6 7
10 10 12 7 8 6 7 9 9 8 8 8 7 8 8 7 7 7 6 9 8 6 6 7 5 4 8 7 4 4 7 6
8 7 8 7 7 8 9 11 11 11 9 8 8 7 7 7 6 10 11 13 13 15 11 2 9 12 13 11 9 11 11 3
12 9 5 6 7 8 10 11 11 10 10 8 8 8 8 7 7 8 9 13 12 15 16 14 10 11 10 12 7 8 6 2
5 5 6 7 9 9 11 11 11 10 13 9 8 8 8 8 7 7 9 9 7 10 12 14 13 11 10 10 7 4 2 1
4 5 7 7 8 10 12 12 12 10 8 8 7 7 8 7 7 5 6 7 4 2 3 4 12 11 12 10 3 3 3 3
Wind_Direction
194 188 183 167 154 138 140 144 139 123 120 110 106 96 92 91 89 89 80 77 74 72 72 70 68 72 78 76 72 80 76 76
209 199 185 172 171 170 169 163 164 157 137 127 113 107 102 97 95 96 90 82 81 80 79 74 74 77 87 85 84 84 81 75
223 205 197 198 188 191 185 183 176 162 151 145 133 124 115 106 103 106 100 90 89 89 86 80 77 79 88 92 90 90 89 86
199 210 212 212 207 202 196 192 172 157 149 153 148 137 120 119 115 111 110 101 96 97 94 94 97 97 93 96 100 96 91 83
232 223 213 208 203 201 196 182 166 163 163 162 159 148 145 136 133 128 121 113 106 105 108 105 102 100 104 103 101 103 95 85
223 233 250 217 190 192 192 176 165 168 168 169 158 156 149 141 134 127 120 116 115 107 93 96 101 94 101 108 109 105 100 94
217 220 227 230 229 191 184 175 164 168 173 153 155 157 152 143 141 134 126 116 107 105 100 85 85 94 104 110 109 97 94 88
212 208 199 200 203 209 184 155 167 168 162 164 161 159 155 148 147 146 142 132 123 116 109 97 92 99 98 102 98 95 90 76
199 185 181 173 181 136 146 155 164 170 164 161 161 159 153 153 154 145 144 139 135 125 113 110 98 104 108 100 103 97 91 81
179 167 167 183 170 154 150 155 165 177 172 166 162 160 161 165 159 146 141 141 138 118 117 111 105 105 114 114 115 108 103 84
165 152 165 191 167 165 176 174 191 182 182 170 164 165 168 161 158 152 145 142 136 128 106 86 90 104 106 117 120 124 113 93
154 186 199 170 162 185 177 206 188 159 155 163 165 165 161 151 151 150 143 133 128 126 122 104 70 103 102 103 119 131 123 111
185 218 192 183 174 194 212 174 160 153 158 162 160 159 158 154 150 153 141 133 137 138 132 115 87 108 107 104 113 120 116 108
203 217 202 198 195 204 206 160 154 147 156 159 153 153 156 158 158 146 148 146 154 162 156 155 106 72 116 119 105 109 108 123
179 216 233 203 203 208 165 154 152 159 159 156 159 155 159 161 163 153 157 154 158 166 169 158 147 130 113 79 100 107 88 85
207 222 233 172 194 169 164 153 160 158 158 164 165 165 161 162 168 166 162 166 165 173 165 159 175 190 163 151 140 135 129 99
225 228 226 183 176 175 168 169 162 163 165 168 163 161 156 153 147 164 166 176 180 173 162 175 175 183 178 165 155 139 130 77
225 225 164 176 180 173 176 175 174 172 162 161 161 161 160 156 153 149 165 161 165 165 169 169 184 183 175 167 172 149 110 110
185 189 172 180 198 175 174 173 173 169 165 164 166 165 159 159 158 156 154 156 148 163 168 182 188 186 184 179 128 133 69 169
159 185 187 190 194 172 174 178 173 163 163 161 161 162 156 150 150 144 143 154 133 130 93 350 184 193 195 192 151 190 218 210